sat.trackr.live / text

‹ back to catalog

STARLINK-5464

NORAD 54758 · 2022-175A

PAYLOAD ACTIVE UNKNOWN

§ Identity

Operator
Country
US
Launch date
2022-12-17
Launch site
AFETR
Launch vehicle
Mass (kg)
RCS (m²)

Purposes: comms

External: N2YO · Heavens-Above · Gunter

§ Orbital elements

Epoch: 2026-05-25T01:05:18.263328Z

Period
95.44 min
Inclination
53.2135°
Eccentricity
0.0002064
Mean motion
15.08847626 rev/d
Perigee alt
538.3 km
Apogee alt
541.1 km
Semi-major
6,917.9 km
B*
-1.3881e-4
RAAN
56.5401°
Arg perigee
85.2679°
Mean anomaly
274.8548°
Rev number
19,151

§ Raw data

STARLINK-54641 54758U 22175A   26145.04535027 -.00002497  00000+0 -13881-3 0  99972 54758  53.2135  56.5401 0002064  85.2679 274.8548 15.08847626191512

JSON: /api/v1/satellites/54758 · /tle

For live sub-satellite position, see the globe view (requires WebGL).

§ Visibility from observer

Set your observer location to see the next 7 days of passes ≥ 10°. The values pass through the URL so the page stays shareable.

No JS? Fill the form by hand. The geolocation button needs JavaScript.